This is the latest recevied weather packets stored in our database for station/object EA7AIS-10. If no packets are shown the sender has not sent any weather packets the latest 10 day(s).
| Time | Temp. | Humidity | Pressure | Rain* | Wind** | Luminosity | Snow |
|---|---|---|---|---|---|---|---|
| 1777945597 | 16.11° C | 72% | 1011.5 hPa | - | - | - | - |
| 1777944697 | 16.11° C | 72% | 1011.6 hPa | - | - | - | - |
| 1777943797 | 16.11° C | 74% | 1011.8 hPa | - | - | - | - |
| 1777942897 | 16.11° C | 75% | 1011.9 hPa | - | - | - | - |
| 1777941997 | 16.11° C | 75% | 1012.1 hPa | - | - | - | - |
| 1777941097 | 16.11° C | 74% | 1012.4 hPa | - | - | - | - |
| 1777940197 | 16.11° C | 76% | 1012.7 hPa | - | - | - | - |
| 1777939297 | 16.11° C | 76% | 1012.8 hPa | - | - | - | - |
| 1777938397 | 16.11° C | 73% | 1012.9 hPa | - | - | - | - |
| 1777937497 | 16.11° C | 72% | 1013 hPa | - | - | - | - |
| 1777936596 | 16.11° C | 73% | 1013.1 hPa | - | - | - | - |
| 1777935696 | 16.11° C | 74% | 1013 hPa | - | - | - | - |
| 1777934796 | 16.11° C | 77% | 1012.9 hPa | - | - | - | - |
| 1777933896 | 16.11° C | 75% | 1013 hPa | - | - | - | - |
| 1777932996 | 16.11° C | 76% | 1013.1 hPa | - | - | - | - |
| 1777932096 | 16.11° C | 75% | 1013.3 hPa | - | - | - | - |
| 1777931196 | 16.67° C | 74% | 1013.3 hPa | - | - | - | - |
| 1777930296 | 16.67° C | 71% | 1013.4 hPa | - | - | - | - |
| 1777929396 | 16.67° C | 68% | 1013.4 hPa | - | - | - | - |
| 1777928496 | 16.67° C | 69% | 1013.3 hPa | - | - | - | - |
| 1777927596 | 16.67° C | 68% | 1013.1 hPa | - | - | - | - |
| 1777926696 | 16.67° C | 67% | 1013 hPa | - | - | - | - |
| 1777924896 | 16.67° C | 63% | 1012.8 hPa | - | - | - | - |
| 1777923995 | 17.22° C | 61% | 1012.8 hPa | - | - | - | - |
| 1777923096 | 17.22° C | 59% | 1012.6 hPa | - | - | - | - |
* Rain since midnight (hover to see other rain measurements)
** Current wind speed in m/s (hover to see current wind gust speed)